Tracking 33199 objects as of 17-Feb-2026
HD Live streaming from Space Station
objects crossing your sky now

GNOMES-1

Track GNOMES-1 now!
10-day predictions


NORAD ID: 46266
Int'l Code: 2020-059B
Perigee: 570.8 km
Apogee: 579.3 km
Inclination: 97.8 °
Period: 96.0 minutes
Semi major axis: 6946 km
RCS: Unknown
Launch date: August 30, 2020
Source: United States (US)
Launch site: AIR FORCE EASTERN TEST RANGE (AFETR)
Your satellite tracking list
Your tracking list is empty




NASA's NSSDC Master Catalog

Two Line Element Set (TLE):
1 46266U 20059B   26047.58941726  .00003707  00000-0  30549-3 0  9992
2 46266  97.8013 257.7758 0006073  58.5288 301.6528 14.99672353297515
Source of the keplerian elements: AFSPC